TimePST,TemperatureF,Dew PointF,Humidity,Sea Level PressureIn,VisibilityMPH,Wind Direction,Wind SpeedMPH,Gust SpeedMPH,PrecipitationIn,Events,Conditions,WindDirDegrees,DateUTC
12:56 AM,45.0,39.0,80,30.25,10.0,South,10.4,-,N/A,,Overcast,170,2013-01-04 08:56:00
1:56 AM,46.0,39.9,79,30.27,10.0,South,13.8,-,N/A,,Overcast,180,2013-01-04 09:56:00
2:56 AM,46.0,41.0,83,30.28,10.0,South,9.2,-,N/A,,Overcast,190,2013-01-04 10:56:00
3:56 AM,45.0,39.9,82,30.30,10.0,SSW,5.8,-,N/A,,Overcast,210,2013-01-04 11:56:00
4:56 AM,45.0,41.0,86,30.29,10.0,South,5.8,-,N/A,,Overcast,180,2013-01-04 12:56:00
5:56 AM,46.0,43.0,89,30.30,10.0,Calm,Calm,-,N/A,,Overcast,0,2013-01-04 13:56:00
6:16 AM,46.4,42.8,87,30.30,10.0,Calm,Calm,-,N/A,,Overcast,0,2013-01-04 14:16:00
6:56 AM,39.0,35.1,86,30.31,10.0,NNW,3.5,-,N/A,,Overcast,340,2013-01-04 14:56:00
7:13 AM,39.2,35.6,87,30.30,10.0,Calm,Calm,-,N/A,,Overcast,0,2013-01-04 15:13:00
7:56 AM,39.0,35.1,86,30.30,9.0,Calm,Calm,-,N/A,,Overcast,0,2013-01-04 15:56:00
8:39 AM,39.2,35.6,87,30.31,9.0,NNW,3.5,-,N/A,,Mostly Cloudy,330,2013-01-04 16:39:00
8:56 AM,41.0,36.0,82,30.32,9.0,NNW,3.5,-,N/A,,Mostly Cloudy,340,2013-01-04 16:56:00
9:56 AM,42.1,37.0,82,30.33,9.0,North,3.5,-,N/A,,Mostly Cloudy,10,2013-01-04 17:56:00
10:17 AM,42.8,37.4,81,30.33,6.0,WNW,3.5,-,N/A,,Haze,300,2013-01-04 18:17:00
10:56 AM,45.0,37.9,76,30.32,7.0,NE,3.5,-,N/A,,Mostly Cloudy,50,2013-01-04 18:56:00
11:56 AM,48.0,41.0,77,30.29,10.0,North,5.8,-,N/A,,Mostly Cloudy,360,2013-01-04 19:56:00
12:56 PM,48.9,43.0,80,30.25,10.0,North,5.8,-,N/A,,Mostly Cloudy,360,2013-01-04 20:56:00
1:40 PM,46.4,42.8,87,30.23,9.0,WNW,6.9,-,N/A,,Overcast,300,2013-01-04 21:40:00
1:56 PM,46.0,42.1,86,30.23,7.0,WNW,5.8,-,N/A,,Overcast,300,2013-01-04 21:56:00
2:56 PM,45.0,43.0,93,30.22,9.0,NNW,5.8,-,N/A,,Overcast,340,2013-01-04 22:56:00
3:56 PM,45.0,43.0,93,30.21,5.0,NNE,3.5,-,N/A,,Overcast,30,2013-01-04 23:56:00
4:17 PM,44.6,42.8,93,30.20,2.0,NNE,8.1,-,N/A,,Overcast,20,2013-01-05 00:17:00
4:56 PM,43.0,42.1,97,30.20,1.0,NNE,8.1,-,N/A,,Overcast,30,2013-01-05 00:56:00
5:38 PM,42.8,42.8,100,30.19,3.0,North,5.8,-,N/A,,Overcast,360,2013-01-05 01:38:00
5:56 PM,43.0,41.0,93,30.19,3.0,NNW,5.8,-,N/A,,Overcast,340,2013-01-05 01:56:00
6:56 PM,39.9,39.0,97,30.19,3.0,North,5.8,-,N/A,,Mostly Cloudy,350,2013-01-05 02:56:00
7:34 PM,37.4,37.4,100,30.19,5.0,NNW,5.8,-,N/A,,Scattered Clouds,330,2013-01-05 03:34:00
7:56 PM,37.9,37.0,97,30.19,5.0,NNW,4.6,-,N/A,,Scattered Clouds,340,2013-01-05 03:56:00
8:11 PM,37.4,37.4,100,30.18,1.5,NNW,5.8,-,N/A,,Mostly Cloudy,340,2013-01-05 04:11:00
8:56 PM,37.9,37.9,100,30.18,1.5,Calm,Calm,-,N/A,,Mostly Cloudy,0,2013-01-05 04:56:00
9:03 PM,37.4,37.4,100,30.18,4.0,West,3.5,-,N/A,,Partly Cloudy,280,2013-01-05 05:03:00
9:27 PM,35.6,35.6,100,30.18,1.5,Calm,Calm,-,N/A,,Clear,0,2013-01-05 05:27:00
9:30 PM,35.6,35.6,100,30.18,0.8,Calm,Calm,-,N/A,,Clear,0,2013-01-05 05:30:00
9:37 PM,35.6,33.8,93,30.18,0.5,North,3.5,-,N/A,Fog,Fog,10,2013-01-05 05:37:00
9:43 PM,35.6,35.6,100,30.18,0.2,Calm,Calm,-,N/A,Fog,Fog,0,2013-01-05 05:43:00
9:56 PM,36.0,36.0,100,30.19,0.2,Calm,Calm,-,N/A,Fog,Fog,0,2013-01-05 05:56:00
10:20 PM,35.6,35.6,100,30.19,0.2,Calm,Calm,-,N/A,Fog,Fog,0,2013-01-05 06:20:00
10:56 PM,35.1,35.1,100,30.19,0.2,Calm,Calm,-,N/A,Fog,Fog,0,2013-01-05 06:56:00
11:56 PM,35.1,35.1,100,30.19,0.2,Calm,Calm,-,N/A,Fog,Fog,0,2013-01-05 07:56:00